Slayton, MN

3:27 AM CDT on August 24, 2016 (GMT -0500)
Slayton

Weather History for KDVP - March, 2013

Change the Weather History Date:

Wednesday, March 6, 2013

  Actual Average (KOTG) Record (KOTG)
Temperature  
Mean Temperature 18 °F -  
Max Temperature 21 °F 26 °F 66 °F (1991)
Min Temperature 16 °F 14 °F -12 °F (1984)
Degree Days  
Heating Degree Days 46    
Moisture  
Dew Point 17 °F    
Average Humidity 93    
Maximum Humidity 97    
Minimum Humidity 87    
Precipitation  
Precipitation 0.00 in - - ()
Sea Level Pressure  
Sea Level Pressure 30.34 in    
Wind  
Wind Speed 9 mph (NNE)    
Max Wind Speed 15 mph    
Max Gust Speed -    
Visibility 8 miles    
Events Snow    
Averages and records for this station are not official NWS values.
T = Trace of Precipitation, MM = Missing Value Source: NWS Daily Summary

Daily Weather History Graph

Daily Weather History Graph

Search for Another Location

Airport or City:

Trip Planner

Search our weather history database for the weather conditions in past years. The results will help you decide how hot, cold, wet, or windy it might be!

Date:

Astronomy

Mar. 06, 2013 Rise Set
Actual Time 6:50 AM CST 6:18 PM CST
Civil Twilight 6:22 AM CST 6:47 PM CST
Nautical Twilight 5:48 AM CST 7:20 PM CST
Astronomical Twilight 5:15 AM CST 7:54 PM CST
Moon 3:09 AM CST (3/6) 12:52 PM CST (3/6)
Length of Visible Light 12h 25m
Length of Day
11h 27m
Waning Crescent, 29% of the Moon is Illuminated
Mar 6
Waning Crescent
Mar 11
New
Mar 19
First Quarter
Mar 27
Full
Apr 2
Last Quarter

Hourly Weather History & Observations

Time (CST) Temp. Windchill Dew Point Humidity Pressure Visibility Wind Dir Wind Speed Gust Speed Precip Events Conditions
12:15 AM 18.9 °F 4.8 °F 17.6 °F 95% 30.34 in 10.0 mi NW 15.0 mph - N/A   Overcast
12:35 AM 18.5 °F 4.3 °F 17.6 °F 96% 30.35 in 10.0 mi NW 15.0 mph - N/A   Overcast
12:55 AM 18.5 °F 4.9 °F 17.6 °F 96% 30.35 in 10.0 mi NW 13.8 mph - N/A   Overcast
1:15 AM 18.5 °F 4.9 °F 17.6 °F 96% 30.35 in 7.0 mi NW 13.8 mph - N/A   Overcast
1:35 AM 18.5 °F 6.8 °F 17.6 °F 96% 30.36 in 7.0 mi NNW 10.4 mph - N/A   Overcast
1:55 AM 18.5 °F 6.8 °F 17.6 °F 96% 30.37 in 7.0 mi NW 10.4 mph - N/A   Overcast
2:15 AM 18.5 °F 4.9 °F 17.6 °F 96% 30.37 in 7.0 mi NW 13.8 mph - N/A   Overcast
2:35 AM 18.1 °F 5.0 °F 17.4 °F 97% 30.37 in 10.0 mi NW 12.7 mph - N/A   Overcast
2:55 AM 18.3 °F 5.9 °F 17.4 °F 96% 30.36 in 7.0 mi NW 11.5 mph - N/A   Overcast
3:14 AM 18.3 °F 6.6 °F 17.6 °F 97% 30.36 in 7.0 mi NW 10.4 mph - N/A   Overcast
3:35 AM 18.1 °F 5.0 °F 17.2 °F 96% 30.36 in 7.0 mi NW 12.7 mph - N/A   Overcast
3:55 AM 18.1 °F 3.9 °F 17.1 °F 96% 30.36 in 7.0 mi NW 15.0 mph - N/A   Overcast
4:14 AM 17.8 °F 4.0 °F 16.7 °F 96% 30.36 in 7.0 mi NW 13.8 mph - N/A   Overcast
4:35 AM 17.6 °F 3.7 °F 16.5 °F 96% 30.36 in 10.0 mi WNW 13.8 mph - N/A   Overcast
4:55 AM 17.6 °F 5.0 °F 16.5 °F 96% 30.37 in 10.0 mi NW 11.5 mph - N/A   Overcast
5:55 AM 16.7 °F 3.8 °F 15.8 °F 96% 30.38 in 10.0 mi NW 11.5 mph - N/A   Overcast
6:15 AM 16.7 °F 7.2 °F 15.6 °F 96% 30.38 in 10.0 mi NW 6.9 mph - N/A   Overcast
6:35 AM 16.7 °F 6.2 °F 15.4 °F 95% 30.39 in 10.0 mi NW 8.1 mph - N/A   Overcast
6:55 AM 16.7 °F 5.3 °F 15.4 °F 95% 30.38 in 10.0 mi NW 9.2 mph - N/A   Overcast
7:15 AM 16.7 °F 8.3 °F 15.8 °F 96% 30.38 in 10.0 mi NNW 5.8 mph - N/A   Overcast
7:35 AM 16.7 °F 7.2 °F 15.8 °F 96% 30.38 in 10.0 mi NNW 6.9 mph - N/A   Overcast
7:55 AM 17.1 °F 7.6 °F 16.3 °F 97% 30.39 in 7.0 mi NNW 6.9 mph - N/A   Overcast
8:15 AM 16.7 °F 7.2 °F 15.8 °F 96% 30.39 in 5.0 mi NW 6.9 mph - N/A Snow Light Snow
8:35 AM 16.9 °F 8.5 °F 16.2 °F 97% 30.40 in 5.0 mi NNW 5.8 mph - N/A Snow Light Snow
8:55 AM 17.1 °F 11.7 °F 16.0 °F 96% 30.40 in 5.0 mi North 3.5 mph - N/A Snow Light Snow
9:15 AM 16.7 °F 11.2 °F 15.4 °F 95% 30.41 in 4.0 mi North 3.5 mph - N/A Snow Light Snow
9:35 AM 17.1 °F 10.0 °F 15.4 °F 93% 30.40 in 1.8 mi NNW 4.6 mph - N/A Snow Light Snow
9:55 AM 17.4 °F - 15.1 °F 91% 30.40 in 2.5 mi Calm Calm - N/A Snow Light Snow
10:16 AM 17.1 °F - 14.7 °F 91% 30.40 in 3.0 mi Calm Calm - N/A Snow Light Snow
10:34 AM 17.6 °F 9.3 °F 15.3 °F 91% 30.39 in 2.5 mi North 5.8 mph - N/A Snow Light Snow
10:55 AM 18.5 °F 13.3 °F 16.3 °F 91% 30.38 in 5.0 mi NE 3.5 mph - N/A Snow Light Snow
11:15 AM 18.1 °F 12.9 °F 15.8 °F 91% 30.38 in 10.0 mi NNE 3.5 mph - N/A   Overcast
11:35 AM 18.9 °F - 16.5 °F 91% 30.38 in 7.0 mi Calm Calm - N/A   Overcast
11:55 AM 19.6 °F - 16.5 °F 88% 30.39 in 7.0 mi Calm Calm - N/A   Overcast
12:15 PM 19.6 °F - 16.5 °F 88% 30.38 in 7.0 mi Calm Calm - N/A   Overcast
12:35 PM 19.2 °F - 16.5 °F 89% 30.38 in 7.0 mi Calm Calm - N/A   Overcast
12:55 PM 19.8 °F - 16.9 °F 89% 30.37 in 7.0 mi Calm Calm - N/A   Overcast
1:15 PM 19.6 °F - 16.7 °F 89% 30.36 in 7.0 mi Calm Calm - N/A   Overcast
1:35 PM 20.5 °F 15.6 °F 17.4 °F 88% 30.35 in 7.0 mi South 3.5 mph - N/A   Overcast
1:55 PM 20.8 °F 16.0 °F 17.8 °F 88% 30.35 in 7.0 mi South 3.5 mph - N/A   Overcast
2:15 PM 21.0 °F - 18.0 °F 88% 30.34 in 7.0 mi Calm Calm - N/A   Overcast
2:35 PM 21.6 °F 15.3 °F 18.3 °F 87% 30.34 in 10.0 mi South 4.6 mph - N/A   Overcast
2:54 PM 21.7 °F - 18.3 °F 87% 30.33 in 10.0 mi Calm Calm - N/A   Overcast
3:15 PM 21.7 °F - 18.5 °F 87% 30.32 in 10.0 mi Calm Calm - N/A   Overcast
3:35 PM 21.7 °F 13.2 °F 18.5 °F 87% 30.33 in 10.0 mi SSE 6.9 mph - N/A   Overcast
3:55 PM 21.6 °F 15.3 °F 18.1 °F 87% 30.32 in 10.0 mi SSW 4.6 mph - N/A   Overcast
4:15 PM 21.4 °F 15.1 °F 18.9 °F 90% 30.32 in 10.0 mi South 4.6 mph - N/A   Overcast
4:35 PM 21.7 °F 17.0 °F 18.7 °F 88% 30.31 in 10.0 mi South 3.5 mph - N/A   Overcast
4:55 PM 21.7 °F 14.3 °F 19.0 °F 89% 30.31 in 10.0 mi SSE 5.8 mph - N/A   Overcast
5:15 PM 21.4 °F 13.8 °F 18.7 °F 89% 30.30 in 10.0 mi SE 5.8 mph - N/A   Overcast
5:35 PM 21.2 °F 11.7 °F 18.5 °F 89% 30.30 in 10.0 mi SE 8.1 mph - N/A   Overcast
5:55 PM 21.0 °F 12.4 °F 18.7 °F 91% 30.29 in 10.0 mi SE 6.9 mph - N/A   Overcast
6:15 PM 21.0 °F 9.3 °F 18.9 °F 91% 30.29 in 10.0 mi SSE 11.5 mph - N/A   Overcast
6:35 PM 20.7 °F 11.0 °F 18.7 °F 92% 30.28 in 10.0 mi ESE 8.1 mph - N/A   Overcast
6:55 PM 20.5 °F 11.7 °F 18.5 °F 92% 30.28 in 10.0 mi ESE 6.9 mph - N/A   Overcast
7:14 PM 20.3 °F 9.0 °F 18.5 °F 93% 30.28 in 10.0 mi ESE 10.4 mph - N/A   Overcast
7:35 PM 20.7 °F 8.8 °F 19.0 °F 93% 30.28 in 10.0 mi ESE 11.5 mph - N/A   Overcast
7:55 PM 20.3 °F 9.0 °F 18.9 °F 94% 30.28 in 10.0 mi SE 10.4 mph - N/A   Overcast
8:15 PM 20.1 °F 7.5 °F 18.5 °F 93% 30.28 in 10.0 mi ESE 12.7 mph - N/A   Overcast
8:35 PM 20.1 °F 8.8 °F 18.7 °F 94% 30.27 in 10.0 mi ESE 10.4 mph - N/A   Overcast
8:55 PM 20.3 °F 8.3 °F 19.0 °F 95% 30.27 in 10.0 mi ESE 11.5 mph - N/A   Overcast
9:15 PM 20.7 °F 8.8 °F 19.0 °F 93% 30.27 in 10.0 mi ESE 11.5 mph - N/A   Overcast
9:35 PM 20.3 °F 9.0 °F 18.5 °F 93% 30.28 in 10.0 mi ESE 10.4 mph - N/A   Overcast
9:55 PM 20.3 °F 8.3 °F 18.9 °F 94% 30.28 in 10.0 mi SE 11.5 mph - N/A   Overcast
10:15 PM 20.3 °F 9.0 °F 18.5 °F 93% 30.29 in 10.0 mi ESE 10.4 mph - N/A   Overcast
10:34 PM 20.3 °F 8.3 °F 18.9 °F 94% 30.29 in 10.0 mi SSE 11.5 mph - N/A   Overcast
10:55 PM 20.1 °F 8.8 °F 18.5 °F 93% 30.29 in 10.0 mi ESE 10.4 mph - N/A   Overcast
11:15 PM 19.8 °F 8.3 °F 18.3 °F 94% 30.29 in 10.0 mi SSE 10.4 mph - N/A   Overcast
11:35 PM 19.9 °F 8.6 °F 18.5 °F 94% 30.29 in 10.0 mi ESE 10.4 mph - N/A   Overcast
11:55 PM 19.9 °F 8.6 °F 18.3 °F 93% 30.29 in 10.0 mi SE 10.4 mph - N/A   Overcast